Location: Gisborne
(38.6530°S, 178.0040°E)
Time: 13:32:02
(UTC+13:00)

ISS - Visible Passes

Search period start: 24 January 2019 00:00
Search period end: 03 February 2019 00:00
Orbit: 404 x 410 km, 51.6° (Epoch: 24 January)

Date Brightness Start Highest point End Pass type
(mag) Time Alt. Az. Time Alt. Az. Time Alt. Az.
26 Jan -1.5 05:40:34 10° N 05:43:05 20° NE 05:45:37 10° E visible
27 Jan -0.9 04:51:20 10° NE 04:51:55 10° NE 04:52:31 10° ENE visible
28 Jan -3.2 05:33:23 10° NW 05:36:39 54° NE 05:39:56 10° ESE visible
29 Jan -2.2 04:44:01 20° N 04:45:21 27° NE 04:48:14 10° ESE visible
30 Jan -1.2 03:54:46 14° ENE 03:54:46 14° ENE 03:55:59 10° E visible
30 Jan -3.4 05:27:29 13° WNW 05:30:19 56° SW 05:33:38 10° SE visible
31 Jan -3.8 04:38:10 51° NNW 04:38:53 75° NE 04:42:14 10° SE visible
01 Feb -1.8 03:48:46 26° E 03:48:46 26° E 03:50:38 10° ESE visible
01 Feb -2.1 05:21:29 11° W 05:24:06 26° SSW 05:27:01 10° SSE visible
02 Feb -3.0 04:32:02 39° WSW 04:32:32 42° SSW 04:35:46 10° SE visible
